Terug naar catalogus

STARLINK-36756

ActiefCommunicatieSSO
NORAD 67817·PAYLOAD·🇺🇸 United States

Gelanceerd Feb 15, 2026 vanaf Vandenberg Space Force Base

Loading…

Volgende Passages (komende 24 uur)

TLE

VersSource: CelesTrak SupGP

Epoch: Sep 14, 2026, 23:08 UTC

1 67817C 26032W   26257.96437500  .00066585  00000+0  20669-2 0  2579
2 67817  97.2856  84.4834 0001650  99.2719  97.7425 15.33406019    15

Volg STARLINK-36756 in realtime met AllMySat

Download on the App Store